Regional Weather Roundup
Issued by NWS Mt. Holly, NJ

Home | Current Version | Previous Version | Text Only | Print | Product List | Glossary On
Versions: 1 2 3 4 5 6 7 8 9 10 11 12 13 14 15 16 17 18 19 20 21 22 23 24 25 26 27 28 29 30 31 32 33 34 35 36 37 38 39 40 41 42 43 44 45 46 47 48 49 50
000
ASUS41 KPHI 290111
RWRPHI

REGIONAL WEATHER ROUNDUP
NATIONAL WEATHER SERVICE MOUNT HOLLY NJ
900 PM EDT FRI APR 28 2017

NOTE:  "FAIR" INDICATES FEW OR NO CLOUDS BELOW 12,000 FEET WITH NO
SIGNIFICANT WEATHER AND/OR OBSTRUCTIONS TO VISIBILITY.

 * = STATION DOES NOT REPORT PRECIPITATION (E.G. RAIN, SNOW, ETC.)
        OR FOG.

NJZ015>026-290200-
SOUTHERN NEW JERSEY

CITY           SKY/WX    TMP DP  RH WIND       PRES   REMARKS
POMONA         CLEAR     72  60  66 S8        30.06R
WILDWOOD*      CLOUDY    65  62  90 SE9       30.07R
MILLVILLE      CLOUDY    67  63  87 CALM      30.05R
WRIGHTSTOWN    CLEAR     72  53  51 SW6       30.02R
MOUNT HOLLY    CLEAR     72  53  51 CALM      30.03S
TRENTON        PTCLDY    77  52  41 CALM      30.03R

$$
NJZ001>014-290200-
NORTHERN NEW JERSEY

CITY           SKY/WX    TMP DP  RH WIND       PRES   REMARKS
SUSSEX         PTCLDY    69  47  45 SW3       30.05R
ANDOVER*         N/A     66  53  63 CALM      30.05R
MORRISTOWN     PTCLDY    77  39  25 W8        30.02R
NEWARK         MOCLDY    77  40  26 SW8       30.02R
TETERBORO      CLEAR     77  43  29 SW9       30.00R
CALDWELL       CLEAR     75  42  30 CALM      30.03R
SOMERVILLE     PTCLDY    66  50  56 CALM      30.02R
ALLAIRE*       PTCLDY    74  53  48 S5        30.05R
TOMS RIVER*    PTCLDY    71  58  63 S8        30.05R

$$
PAZ043-044-047-054-055-060>062-066>071-290200-
EASTERN PENNSYLVANIA

CITY           SKY/WX    TMP DP  RH WIND       PRES   REMARKS
PHILADELPHIA   MOCLDY    74  58  57 S8        30.04R
NORTH PHILA    CLEAR     77  55  46 SW5       30.05R
BLUE BELL*     PTCLDY    66  55  68 SW3       30.05R
DOYLESTOWN     PTCLDY    67  51  56 CALM      30.03R
QUAKERTOWN*    PTCLDY    66  48  52 MISG      30.05R
PERKASIE*      FAIR      64  46  52 CALM      30.06R
POTTSTOWN      CLEAR     67  51  56 CALM      30.05R
LANCASTER      CLEAR     70  54  56 VRB3      30.04R
COATESVILLE    CLEAR     72  55  56 CALM      30.07R
READING        PTCLDY    68  52  56 S5        30.02R
ALLENTOWN      PTCLDY    67  46  47 CALM      30.03R
MOUNT POCONO   CLEAR     64  37  36 NW5       30.09R
HAZLETON       PTCLDY    61  36  39 CALM      30.12R
LEHIGHTON      FAIR      61  50  67 CALM      30.05R
WILKES BARRE   PTCLDY    67  43  41 S3        30.06R

$$
DEZALL-MDZ008-012-015-019-020-290200-
DELAWARE AND EASTERN MARYLAND

CITY           SKY/WX    TMP DP  RH WIND       PRES   REMARKS
WILMINGTON     CLEAR     69  59  70 S6        30.05R
DOVER          CLEAR     69  69 100 SE3       30.03R
GEORGETOWN     CLEAR     74  67  78 S7        30.06R
EASTON         CLEAR     77  61  57 S6        30.08R
ABERDEEN       PTCLDY    66  60  79 CALM      30.04R
PATUXENT       PTCLDY    70  69  97 SE8       30.04R
OCEAN CITY     MOCLDY    68  67  96 SW8       30.07R FOG
WALLOPS ISLAND CLEAR     66  66 100 S9        30.08R
CAMBRIDGE      CLEAR     72  64  78 SE3       30.05R
SALISBURY      CLEAR     72  68  87 S7        30.06R

$$
PAZ001-021-NYZ056-072-MDZ011-DCZ001-290200-
OTHER NEARBY LOCATIONS

CITY           SKY/WX    TMP DP  RH WIND       PRES   REMARKS
HARRISBURG     MOCLDY    68  58  70 SE3       30.00S
STATE COLLEGE  CLEAR     68  41  37 CALM      30.02F
BINGHAMTON     CLOUDY    66  42  41 SW7       30.04S
NEW YORK CITY  CLEAR     77  41  27 VRB3      30.04R
BALTIMORE      PTCLDY    73  60  63 SE5       30.03R
WASHINGTON DC  MOCLDY    76  63  64 S8        30.03R

$$



USA.gov is the U.S. government's official web portal to all federal, state and local government web resources and services.